Location: Marstown
(39.5056°N, 77.0820°W)
Time: 12:39:14
(UTC-05:00)

Hubble Space Telescope - Visible Passes

Search period start: 07 December 2019 00:00
Search period end: 17 December 2019 00:00
Orbit: 536 x 540 km, 28.5° (Epoch: 06 December)

Date Brightness Start Highest point End Pass type
(mag) Time Alt. Az. Time Alt. Az. Time Alt. Az.
14 Dec 3.4 06:39:44 10° SSW 06:42:09 15° S 06:44:35 10° SE visible
15 Dec 3.3 06:28:49 10° SSW 06:31:26 16° S 06:34:03 10° SE visible
16 Dec 3.7 04:40:33 10° SSE 04:40:33 10° SSE 04:40:48 10° SSE visible
16 Dec 3.2 06:18:00 10° SW 06:20:43 17° S 06:23:27 10° SE visible
